Home   Weather   Raleigh   Past weeks

Flag for USA Past Weather in Raleigh, North Carolina, USA — Yesterday and Last 2 Weeks

Now
71 °F

Passing clouds.


Feels Like: 65 °F
Forecast: 72 / 83 °F
Wind: No wind

Location: Raleigh-Durham International Airport

Current Time: Jul 23, 2018 at 3:49:09 am

Latest Report: Jul 23, 2018 at 2:51 am


Visibility: 10 mi

Pressure: 29.79 "Hg

Humidity: 96%

Dew Point: 70 °F

Location of RaleighLocation

Past Weather in Raleigh — Graph

°F

Raleigh Temperature Yesterday

Maximum temperature yesterday: 88 °F (at 4:51 pm)
Minimum temperature yesterday: 68 °F (at 5:02 am)
Average temperature yesterday: 75 °F

High & Low Weather Summary for the Past Weeks

 TemperatureHumidityPressure
High97 °F (Jul 17, 3:51 pm)100% (Jul 18, 5:51 am)30.28 "Hg (Jul 18, 5:51 am)
Low58 °F (Jul 9, 4:51 am)26% (Jul 9, 3:51 pm)29.72 "Hg (Jul 22, 5:51 pm)
Average78 °F67%30.02 "Hg
* Reported Jul 8 2:51 am — Jul 23 2:22 am, Raleigh. Weather by CustomWeather, © 2018

Note: Actual official high and low records may vary slightly from our data, if they occured in-between our weather recording intervals... More about our weather records

Advertising

Raleigh Weather History for the Previous 24 Hours

Scroll right to see more
 ConditionsComfort  
Time TempWeatherWind HumidityBarometerVisibility
2:22 am
Mon, Jul 23
71 °FPassing clouds.No wind96%29.79 "Hg10 mi
2:05 am71 °FPassing clouds.3 mph96%29.80 "Hg10 mi
1:51 am71 °FPassing clouds.3 mph96%29.80 "Hg10 mi
1:06 am70 °FPassing clouds.No wind100%29.83 "Hg10 mi
12:51 am71 °FPassing clouds.No wind96%29.82 "Hg10 mi
11:51 pm
Sun, Jul 22
71 °FOvercast.6 mph93%29.81 "Hg10 mi
11:10 pm70 °FPartly cloudy.3 mph97%29.84 "Hg10 mi
10:51 pm71 °FPassing clouds.3 mph93%29.82 "Hg10 mi
9:51 pm71 °FPassing clouds.9 mph93%29.81 "Hg10 mi
9:17 pm72 °FPartly cloudy.10 mph84%29.79 "Hg10 mi
8:51 pm76 °FThunderstorms. Fog.13 mph88%29.78 "Hg4 mi
7:51 pm83 °FPartly sunny.8 mph70%29.73 "Hg10 mi
6:51 pm87 °FScattered clouds.5 mph53%29.72 "Hg10 mi
5:51 pm88 °FScattered clouds.5 mph57%29.72 "Hg10 mi
4:51 pm88 °FScattered clouds.5 mph57%29.73 "Hg10 mi
3:51 pm86 °FScattered clouds.3 mph59%29.73 "Hg10 mi
3:23 pm80 °FBroken clouds.No wind76%29.74 "Hg10 mi
2:51 pm77 °FThunderstorms. Fog.7 mph90%29.75 "Hg6 mi
2:17 pm82 °FThunderstorms. Broken clouds.7 mph67%29.76 "Hg10 mi
1:51 pm83 °FBroken clouds.3 mph65%29.75 "Hg10 mi
12:51 pm81 °FPartly sunny.5 mph69%29.78 "Hg10 mi
11:51 am77 °FOvercast.8 mph82%29.79 "Hg10 mi
10:51 am74 °FMostly cloudy.8 mph88%29.79 "Hg10 mi
9:51 am71 °FBroken clouds.3 mph93%29.78 "Hg10 mi
8:51 am70 °FPartly sunny.5 mph93%29.75 "Hg10 mi
7:51 am68 °FLight rain. Partly sunny.7 mph96%29.73 "Hg10 mi
6:51 am68 °FLight rain. Mostly cloudy.8 mph96%29.77 "Hg10 mi
5:51 am68 °FLight rain. Mostly cloudy.6 mph96%29.74 "Hg9 mi
5:02 am68 °FLight rain. Mostly cloudy.6 mph96%29.75 "Hg7 mi
3:59 am70 °FThunderstorms. Overcast.9 mph97%29.77 "Hg10 mi
Weather by CustomWeather, © 2018

See weather overview